| time (UTC) | temp F | wind direction | speed MPH | gust MPH | rain 1hr in | rain 24hr in | rain mn in | humidity % | barometer mb |
| 20260508122906 | 67 | 354 | 6.0 | 13.0 | 0.00 | 1.01 | 1.01 | 70 | 1014.9 |
| 20260508122650 | 66 | 18 | 5.0 | 13.0 | 0.00 | 1.01 | 1.01 | 69 | 1015.0 |
| 20260508121652 | 66 | 37 | 5.0 | 11.0 | 0.00 | 1.01 | 1.01 | 69 | 1014.8 |
| 20260508115904 | 66 | 0 | 7.0 | 13.0 | 0.00 | 1.01 | 1.01 | 67 | 1014.9 |
| 20260508114906 | 67 | 86 | 8.0 | 13.0 | 0.00 | 1.01 | 1.01 | 66 | 1014.8 |
| 20260508113906 | 68 | 6 | 7.0 | 14.0 | 0.00 | 1.01 | 1.01 | 67 | 1014.7 |
| 20260508113742 | 69 | 13 | 5.0 | 13.0 | 0.00 | 1.01 | 1.01 | 65 | 1014.8 |
| 20260508111904 | 69 | 48 | 5.0 | 11.0 | 0.00 | 1.01 | 1.01 | 66 | 1014.7 |
| 20260508110904 | 67 | 58 | 4.0 | 7.0 | 0.00 | 1.01 | 1.01 | 71 | 1014.6 |
| 20260508105903 | 67 | 355 | 5.0 | 12.0 | 0.00 | 1.01 | 1.01 | 69 | 1014.8 |
| 20260508104905 | 67 | 31 | 6.0 | 9.0 | 0.00 | 1.01 | 1.01 | 69 | 1014.8 |
| 20260508103904 | 68 | 11 | 6.0 | 13.0 | 0.00 | 1.01 | 1.01 | 69 | 1014.8 |
| 20260508102906 | 67 | 20 | 7.0 | 13.0 | 0.00 | 1.01 | 1.01 | 71 | 1014.8 |
| 20260508101909 | 66 | 320 | 6.0 | 12.0 | 0.00 | 1.01 | 1.01 | 73 | 1014.8 |
| 20260508101655 | 65 | 56 | 6.0 | 12.0 | 0.00 | 1.01 | 1.01 | 75 | 1015.0 |
| 20260508095905 | 66 | 31 | 6.0 | 13.0 | 0.00 | 1.01 | 1.01 | 74 | 1015.0 |
| 20260508094906 | 67 | 24 | 6.0 | 13.0 | 0.00 | 1.01 | 1.01 | 74 | 1014.9 |
| 20260508093907 | 67 | 94 | 7.0 | 11.0 | 0.00 | 1.01 | 1.01 | 71 | 1014.8 |
| 20260508093703 | 67 | 11 | 2.0 | 12.0 | 0.00 | 1.01 | 1.01 | 69 | 1014.8 |
| 20260508091905 | 67 | 61 | 6.0 | 13.0 | 0.00 | 1.01 | 1.01 | 63 | 1015.0 |
| 20260508090905 | 67 | 123 | 5.0 | 11.0 | 0.00 | 1.01 | 1.01 | 68 | 1014.9 |
| 20260508085905 | 66 | 89 | 5.0 | 9.0 | 0.00 | 1.01 | 1.01 | 76 | 1014.8 |
| 20260508084904 | 65 | 80 | 5.0 | 10.0 | 0.00 | 1.01 | 1.01 | 76 | 1014.8 |
| 20260508083903 | 64 | 87 | 5.0 | 9.0 | 0.00 | 1.01 | 1.01 | 78 | 1014.8 |
| 20260508082906 | 65 | 52 | 4.0 | 10.0 | 0.00 | 1.01 | 1.01 | 79 | 1014.9 |
| 20260508081908 | 64 | 48 | 4.0 | 7.0 | 0.00 | 1.01 | 1.01 | 79 | 1014.8 |
| 20260508080907 | 64 | 89 | 4.0 | 7.0 | 0.00 | 1.01 | 1.01 | 81 | 1014.7 |
| 20260508075905 | 64 | 47 | 3.0 | 6.0 | 0.00 | 1.01 | 1.01 | 83 | 1014.7 |
| 20260508074906 | 63 | 66 | 4.0 | 6.0 | 0.00 | 1.01 | 1.01 | 85 | 1014.6 |
| 20260508073904 | 63 | 79 | 4.0 | 6.0 | 0.00 | 1.01 | 1.01 | 86 | 1014.6 |
| 20260508072904 | 62 | 27 | 2.0 | 4.0 | 0.00 | 1.01 | 1.01 | 89 | 1014.5 |
| 20260508072656 | 62 | 69 | 3.0 | 6.0 | 0.00 | 1.01 | 1.01 | 89 | 1014.5 |
| 20260508070906 | 62 | 79 | 1.0 | 4.0 | 0.00 | 1.01 | 1.01 | 90 | 1014.4 |
| 20260508065906 | 61 | 54 | 1.0 | 4.0 | 0.00 | 1.01 | 1.01 | 90 | 1014.5 |
| 20260508064907 | 61 | 82 | 3.0 | 5.0 | 0.00 | 1.01 | 1.01 | 90 | 1014.4 |
| 20260508063905 | 61 | 28 | 2.0 | 3.0 | 0.00 | 1.01 | 1.01 | 90 | 1014.4 |
| 20260508063640 | 60 | 51 | 2.0 | 4.0 | 0.00 | 1.01 | 1.01 | 90 | 1014.5 |
| 20260508061907 | 60 | 59 | 2.0 | 4.0 | 0.00 | 1.01 | 1.01 | 91 | 1014.3 |
| 20260508060908 | 60 | 59 | 2.0 | 3.0 | 0.00 | 1.01 | 1.01 | 91 | 1014.3 |
| 20260508055904 | 60 | 59 | 2.0 | 3.0 | 0.00 | 1.01 | 1.01 | 91 | 1014.3 |
| 20260508054906 | 60 | 63 | 2.0 | 3.0 | 0.00 | 1.01 | 1.01 | 91 | 1014.2 |
| 20260508053908 | 59 | 63 | 1.0 | 3.0 | 0.00 | 1.01 | 1.01 | 90 | 1014.1 |
| 20260508052904 | 59 | 63 | 0.0 | 2.0 | 0.00 | 1.01 | 1.01 | 90 | 1014.1 |
| 20260508051904 | 59 | 63 | 1.0 | 2.0 | 0.00 | 1.01 | 1.01 | 90 | 1014.1 |
| 20260508051641 | 58 | 63 | 0.0 | 2.0 | 0.00 | 1.01 | 1.01 | 89 | 1014.0 |
| 20260508045904 | 58 | 63 | 0.0 | 2.0 | 0.00 | 1.01 | 1.01 | 89 | 1013.9 |
| 20260508044903 | 58 | 63 | 1.0 | 2.0 | 0.00 | 1.01 | 1.01 | 89 | 1013.8 |
| 20260508043856 | 58 | 63 | 0.0 | 0.0 | 0.00 | 1.01 | 1.01 | 89 | 1013.8 |
| 20260508042855 | 57 | 63 | 0.0 | 1.0 | 0.00 | 1.01 | 1.01 | 88 | 1013.5 |
| 20260508041858 | 57 | 63 | 0.0 | 2.0 | 0.00 | 1.01 | 1.01 | 88 | 1013.6 |
| 20260508040858 | 58 | 63 | 1.0 | 1.0 | 0.00 | 1.01 | 1.01 | 89 | 1013.5 |
| 20260508040223 | 57 | 63 | 1.0 | 2.0 | 0.00 | 1.02 | 1.01 | 88 | 1013.5 |
| 20260508035945 | 57 | 63 | 0.0 | 2.0 | 0.00 | 1.02 | 1.01 | 88 | 1013.4 |
| 20260508033857 | 57 | 63 | 1.0 | 2.0 | 0.00 | 1.02 | 1.01 | 88 | 1013.5 |
| 20260508032852 | 57 | 63 | 0.0 | 1.0 | 0.00 | 1.02 | 1.01 | 88 | 1013.4 |
| 20260508031853 | 57 | 63 | 0.0 | 1.0 | 0.00 | 1.02 | 1.01 | 88 | 1013.3 |
| 20260508030848 | 57 | 63 | 0.0 | 1.0 | 0.00 | 1.02 | 1.01 | 88 | 1013.4 |
| 20260508025851 | 57 | 63 | 0.0 | 0.0 | 0.00 | 1.03 | 1.01 | 88 | 1013.4 |
| 20260508025437 | 57 | 63 | 0.0 | 0.0 | 0.00 | 1.05 | 1.01 | 88 | 1013.4 |
| 20260508023850 | 57 | 63 | 0.0 | 1.0 | 0.00 | 1.06 | 1.01 | 87 | 1013.6 |
| 20260508023602 | 57 | 63 | 0.0 | 2.0 | 0.00 | 1.07 | 1.01 | 87 | 1013.6 |
| 20260508021846 | 57 | 63 | 0.0 | 3.0 | 0.00 | 1.07 | 1.01 | 88 | 1013.5 |
| 20260508020847 | 58 | 63 | 2.0 | 3.0 | 0.00 | 1.08 | 1.01 | 88 | 1013.5 |
| 20260508015848 | 57 | 63 | 1.0 | 3.0 | 0.00 | 1.08 | 1.01 | 88 | 1013.7 |
| 20260508014849 | 57 | 63 | 2.0 | 3.0 | 0.00 | 1.08 | 1.01 | 88 | 1013.8 |
| 20260508013850 | 57 | 63 | 3.0 | 5.0 | 0.00 | 1.08 | 1.01 | 87 | 1013.7 |
| 20260508013614 | 57 | 59 | 4.0 | 5.0 | 0.00 | 1.08 | 1.01 | 87 | 1013.9 |
| 20260508011844 | 57 | 71 | 3.0 | 5.0 | 1.01 | 1.08 | 1.01 | 86 | 1013.8 |
| 20260508010844 | 57 | 68 | 4.0 | 6.0 | 1.01 | 1.08 | 1.01 | 85 | 1013.8 |
| 20260508005844 | 57 | 58 | 4.0 | 6.0 | 1.01 | 0.07 | 1.01 | 84 | 1013.9 |
| 20260508004843 | 57 | 83 | 4.0 | 5.0 | 1.01 | 0.07 | 1.01 | 83 | 1013.7 |
| 20260508003847 | 57 | 82 | 4.0 | 4.0 | 1.01 | 0.07 | 1.01 | 82 | 1013.6 |
| 20260508002855 | 58 | 97 | 2.0 | 3.0 | 0.00 | 0.07 | 0.00 | 81 | 1013.8 |
| 20260508002846 | 57 | 142 | 0.0 | 3.0 | 1.01 | 0.07 | 1.01 | 81 | 1013.8 |
| 20260508002001 | 57 | 110 | 1.0 | 3.0 | 0.00 | 0.07 | 0.00 | 81 | 1013.9 |
| 20260507235833 | 58 | 103 | 2.0 | 3.0 | 0.00 | 0.07 | 0.00 | 81 | 1013.9 |
| 20260507234834 | 58 | 97 | 3.0 | 3.0 | 0.00 | 0.07 | 0.00 | 81 | 1014.2 |
| 20260507233834 | 58 | 97 | 2.0 | 4.0 | 0.00 | 0.07 | 0.00 | 81 | 1014.3 |
| 20260507232837 | 57 | 128 | 2.0 | 5.0 | 0.00 | 0.07 | 0.00 | 81 | 1014.5 |
| 20260507231834 | 57 | 89 | 4.0 | 5.0 | 0.00 | 0.07 | 0.00 | 81 | 1014.5 |
| 20260507230833 | 57 | 111 | 2.0 | 4.0 | 0.00 | 0.07 | 0.00 | 81 | 1014.5 |
| 20260507225833 | 57 | 157 | 1.0 | 3.0 | 0.00 | 0.07 | 0.00 | 82 | 1014.6 |
| 20260507224836 | 57 | 165 | 1.0 | 4.0 | 0.00 | 0.07 | 0.00 | 82 | 1014.6 |
| 20260507223835 | 57 | 151 | 1.0 | 3.0 | 0.00 | 0.07 | 0.00 | 82 | 1014.5 |
| 20260507223647 | 57 | 145 | 1.0 | 2.0 | 0.00 | 0.07 | 0.00 | 82 | 1014.4 |
| 20260507221833 | 57 | 159 | 0.0 | 2.0 | 0.00 | 0.07 | 0.00 | 82 | 1014.4 |
| 20260507221442 | 57 | 221 | 1.0 | 3.0 | 0.00 | 0.07 | 0.00 | 82 | 1014.4 |
| 20260507215835 | 57 | 162 | 1.0 | 2.0 | 0.00 | 0.07 | 0.07 | 82 | 1014.5 |
| 20260507214833 | 58 | 159 | 0.0 | 3.0 | 0.00 | 0.07 | 0.07 | 82 | 1014.4 |
| 20260507213834 | 58 | 178 | 1.0 | 2.0 | 0.00 | 0.07 | 0.07 | 82 | 1014.5 |
| 20260507213624 | 58 | 233 | 0.0 | 3.0 | 0.00 | 0.07 | 0.07 | 81 | 1014.5 |
| 20260507211833 | 58 | 176 | 0.0 | 4.0 | 0.00 | 0.07 | 0.07 | 81 | 1014.6 |
| 20260507210943 | 59 | 238 | 0.0 | 3.0 | 0.00 | 0.07 | 0.07 | 80 | 1014.7 |
| 20260507210848 | 58 | 137 | 1.0 | 3.0 | 0.00 | 0.07 | 0.07 | 80 | 1014.5 |
| 20260507204832 | 59 | 142 | 0.0 | 5.0 | 0.00 | 0.07 | 0.07 | 79 | 1014.6 |
| 20260507203833 | 59 | 120 | 0.0 | 3.0 | 0.00 | 0.07 | 0.07 | 79 | 1014.7 |
| 20260507202836 | 59 | 7 | 0.0 | 3.0 | 0.00 | 0.07 | 0.07 | 79 | 1014.7 |
| 20260507201838 | 60 | 185 | 0.0 | 4.0 | 0.00 | 0.07 | 0.07 | 78 | 1014.7 |
| 20260507200832 | 60 | 159 | 0.0 | 2.0 | 0.00 | 0.07 | 0.07 | 77 | 1014.7 |
| 20260507200157 | 61 | 100 | 2.0 | 5.0 | 0.00 | 0.07 | 0.07 | 75 | 1014.5 |
| 20260507195903 | 61 | 154 | 1.0 | 5.0 | 0.00 | 0.07 | 0.07 | 76 | 1014.7 |
| 20260507194833 | 61 | 123 | 3.0 | 5.0 | 0.00 | 0.07 | 0.07 | 76 | 1014.5 |
| 20260507193211 | 62 | 162 | 4.0 | 7.0 | 0.00 | 0.07 | 0.07 | 73 | 1014.3 |
| 20260507192909 | 62 | 72 | 3.0 | 7.0 | 0.00 | 0.07 | 0.07 | 74 | 1014.5 |
| 20260507191938 | 62 | 76 | 4.0 | 7.0 | 0.00 | 0.07 | 0.07 | 72 | 1014.2 |
| 20260507191918 | 63 | 113 | 5.0 | 7.0 | 0.00 | 0.07 | 0.07 | 70 | 1014.2 |
| 20260507191842 | 62 | 148 | 2.0 | 7.0 | 0.00 | 0.07 | 0.07 | 74 | 1014.5 |
| 20260507183834 | 63 | 89 | 5.0 | 9.0 | 0.00 | 0.07 | 0.07 | 70 | 1014.2 |
| 20260507182835 | 63 | 96 | 2.0 | 10.0 | 0.00 | 0.07 | 0.07 | 69 | 1014.1 |
| 20260507182205 | 64 | 86 | 5.0 | 10.0 | 0.00 | 0.07 | 0.07 | 69 | 1013.9 |
| 20260507181911 | 64 | 110 | 6.0 | 10.0 | 0.00 | 0.07 | 0.07 | 69 | 1014.0 |
| 20260507175833 | 65 | 159 | 4.0 | 12.0 | 0.00 | 0.07 | 0.07 | 69 | 1013.7 |
| 20260507174836 | 65 | 89 | 4.0 | 10.0 | 0.00 | 0.07 | 0.07 | 68 | 1013.6 |
| 20260507174735 | 65 | 117 | 5.0 | 9.0 | 0.00 | 0.07 | 0.07 | 68 | 1013.5 |
| 20260507172834 | 65 | 111 | 6.0 | 12.0 | 0.00 | 0.07 | 0.07 | 68 | 1013.5 |
| 20260507171850 | 66 | 80 | 7.0 | 15.0 | 0.00 | 0.07 | 0.07 | 67 | 1013.4 |
| 20260507170835 | 66 | 99 | 7.0 | 13.0 | 0.00 | 0.07 | 0.07 | 68 | 1013.2 |
| 20260507165835 | 66 | 102 | 5.0 | 12.0 | 0.00 | 0.07 | 0.07 | 68 | 1013.1 |
| 20260507164832 | 66 | 90 | 6.0 | 13.0 | 0.00 | 0.07 | 0.07 | 68 | 1013.1 |
| 20260507163833 | 67 | 114 | 6.0 | 13.0 | 0.00 | 0.07 | 0.07 | 68 | 1013.0 |
| 20260507162834 | 67 | 66 | 6.0 | 13.0 | 0.00 | 0.07 | 0.07 | 67 | 1013.1 |
| 20260507162654 | 67 | 149 | 6.0 | 14.0 | 0.00 | 0.07 | 0.07 | 68 | 1013.3 |
| 20260507161642 | 67 | 127 | 8.0 | 14.0 | 0.00 | 0.07 | 0.07 | 67 | 1013.3 |
| 20260507155834 | 67 | 94 | 7.0 | 13.0 | 0.00 | 0.07 | 0.07 | 68 | 1013.3 |
| 20260507154833 | 67 | 104 | 9.0 | 16.0 | 0.00 | 0.07 | 0.07 | 67 | 1013.2 |
| 20260507154328 | 68 | 99 | 10.0 | 16.0 | 0.00 | 0.07 | 0.07 | 69 | 1013.1 |
| 20260507154307 | 68 | 100 | 8.0 | 15.0 | 0.00 | 0.07 | 0.07 | 69 | 1013.3 |
| 20260507153927 | 68 | 86 | 7.0 | 16.0 | 0.00 | 0.07 | 0.07 | 68 | 1013.1 |
| 20260507150833 | 69 | 71 | 11.0 | 17.0 | 0.00 | 0.07 | 0.07 | 69 | 1013.0 |
| 20260507145832 | 68 | 49 | 8.0 | 17.0 | 0.00 | 0.07 | 0.07 | 71 | 1013.2 |
| 20260507144833 | 68 | 68 | 12.0 | 17.0 | 0.00 | 0.07 | 0.07 | 71 | 1013.2 |
| 20260507144618 | 69 | 78 | 11.0 | 18.0 | 0.00 | 0.07 | 0.07 | 71 | 1013.2 |
| 20260507143758 | 71 | 100 | 11.0 | 17.0 | 0.00 | 0.07 | 0.07 | 67 | 1013.2 |
| 20260507141834 | 72 | 62 | 7.0 | 17.0 | 0.00 | 0.07 | 0.07 | 60 | 1013.2 |
| 20260507140832 | 74 | 76 | 10.0 | 15.0 | 0.00 | 0.07 | 0.07 | 53 | 1013.1 |
| 20260507135832 | 76 | 310 | 3.0 | 6.0 | 0.00 | 0.07 | 0.07 | 47 | 1013.2 |
| 20260507135356 | 75 | 319 | 2.0 | 4.0 | 0.00 | 0.07 | 0.07 | 46 | 1013.2 |
| 20260507135005 | 75 | 1 | 2.0 | 6.0 | 0.00 | 0.07 | 0.07 | 49 | 1013.2 |
| 20260507132830 | 76 | 286 | 1.0 | 5.0 | 0.00 | 0.07 | 0.07 | 46 | 1013.2 |
| 20260507131831 | 76 | 243 | 1.0 | 4.0 | 0.00 | 0.07 | 0.07 | 46 | 1013.4 |
| 20260507130829 | 77 | 250 | 1.0 | 5.0 | 0.00 | 0.07 | 0.07 | 46 | 1013.4 |
| 20260507125831 | 76 | 238 | 1.0 | 5.0 | 0.00 | 0.07 | 0.07 | 49 | 1013.4 |